Temperature
13 14 14 14 14 14 15 15 15 15 15 16 16 16 16 17 17 17 17 17 17 16 16 16 16 16 16 16 15 15 15 15 15 15 15 14 14 14
13 14 14 14 14 14 14 15 15 15 15 16 16 16 16 16 16 16 16 16 16 16 16 16 16 16 16 15 15 15 15 15 15 15 14 14 14 14
13 13 13 14 14 14 14 14 15 15 15 15 15 15 16 16 16 16 16 16 16 16 16 16 16 15 15 15 15 15 15 15 14 14 14 14 14 13
13 13 13 13 14 14 14 14 14 14 14 14 15 15 15 15 15 15 16 16 16 16 15 15 15 15 15 15 15 15 14 14 14 14 14 13 13 13
12 12 13 13 13 14 14 14 14 14 14 14 14 14 15 15 15 15 15 15 15 15 15 15 15 15 14 14 14 14 14 14 14 14 13 13 13 13
12 12 12 13 13 13 13 13 14 14 14 14 14 14 14 14 14 14 14 14 14 15 14 14 14 14 14 14 14 14 14 13 13 13 13 13 12 12
12 12 12 12 13 13 13 13 13 13 13 13 13 13 14 14 14 14 14 14 14 14 14 14 14 13 13 13 13 13 13 13 13 13 12 12 12 12
12 12 12 12 12 12 13 13 13 13 13 13 13 13 13 14 14 14 14 14 13 14 14 13 13 13 13 13 13 13 13 13 12 12 12 12 12 12
11 12 12 12 12 12 12 13 13 13 13 13 13 13 13 14 14 13 13 13 13 13 13 13 13 13 13 13 13 12 12 12 12 12 12 12 12 11
11 11 12 12 12 12 12 12 12 13 13 13 13 13 13 13 14 14 13 13 13 13 13 13 12 12 12 12 12 12 12 12 12 12 11 11 11 11
11 11 11 11 12 12 12 12 12 12 13 13 13 13 13 13 13 13 13 13 12 12 12 12 12 12 12 12 12 12 11 11 11 11 11 11 11 11
11 11 11 11 12 12 12 12 12 12 12 13 13 13 13 13 13 13 13 13 12 12 12 12 12 11 11 11 11 11 11 11 11 11 10 10 10 10
10 11 11 11 11 12 12 12 12 12 12 12 12 12 12 12 13 13 13 13 12 12 12 12 12 11 11 11 10 10 10 10 10 10 10 10 10 9
10 10 11 11 11 12 12 12 12 12 12 12 12 12 12 12 12 12 12 12 12 13 13 12 12 12 12 11 10 10 10 10 10 10 10 10 9 9
10 11 11 11 11 12 12 12 12 12 12 12 12 12 12 12 12 12 12 12 12 12 12 12 12 12 12 12 11 10 10 9 9 9 9 9 9 9
10 11 11 11 11 12 12 12 12 11 11 11 12 12 12 12 12 12 12 12 11 11 11 11 11 11 11 11 11 11 10 10 10 9 9 9 9 9
10 11 11 11 11 11 11 12 12 11 11 11 11 11 11 11 11 11 11 11 11 11 11 11 11 11 11 11 10 10 10 10 10 9 9 9 9 9
10 10 11 11 11 11 11 11 11 11 11 11 11 11 11 11 11 11 11 11 11 11 11 11 11 10 10 10 10 10 10 10 9 9 9 9 8 8
10 10 11 11 11 11 11 11 11 11 11 11 11 11 11 11 11 11 11 11 11 11 11 11 10 10 10 10 10 10 10 9 9 9 9 8 8 8
10 10 11 11 11 11 11 11 11 11 11 11 11 11 11 11 11 11 11 10 10 10 10 10 10 10 10 11 10 10 10 9 9 9 9 8 8 8
11 11 11 11 11 11 11 11 11 11 11 11 11 11 11 11 11 10 10 10 10 10 10 10 10 10 10 10 10 9 9 9 9 8 8 8 8 8
11 11 11 11 11 11 11 11 11 11 11 11 11 11 11 11 10 10 10 10 10 10 10 10 10 10 9 9 10 9 9 9 9 9 8 8 8 8
11 11 11 11 11 11 11 11 11 11 11 11 11 11 11 11 10 10 10 10 10 10 10 10 9 9 9 9 9 9 9 8 8 8 9 9 8 8
Wind_Speed
9 11 11 10 10 11 11 10 9 9 9 9 7 8 9 11 11 15 15 20 22 21 21 20 20 18 18 16 15 15 14 14 13 12 11 10 9 7
7 9 10 10 10 10 11 11 11 10 8 7 7 6 8 9 12 14 14 17 22 22 22 21 21 20 19 17 17 15 15 15 14 13 12 10 9 8
7 8 9 10 9 10 10 10 11 11 10 6 6 6 8 9 9 12 13 13 16 21 21 22 21 21 20 19 18 17 16 16 15 14 12 11 11 10
7 7 8 7 9 9 9 11 10 11 10 10 7 7 8 9 9 10 9 12 13 18 22 22 22 21 20 19 18 18 17 17 16 14 13 13 12 12
7 7 7 7 7 7 8 9 9 9 9 9 7 6 6 7 9 9 10 7 10 15 19 21 21 22 21 20 19 18 18 18 16 15 15 14 14 13
7 7 7 7 7 6 7 8 8 9 9 8 7 6 6 7 8 8 9 8 8 10 12 15 18 20 20 19 19 19 19 19 18 17 16 16 15 14
7 6 5 5 6 6 6 6 7 8 8 8 8 7 7 7 9 8 8 7 7 7 9 9 11 11 14 17 18 19 20 20 19 18 18 18 16 16
6 5 4 4 3 4 5 6 6 8 9 9 8 9 10 9 8 8 8 8 6 7 8 8 8 9 9 13 18 21 21 21 20 20 19 19 18 16
6 5 3 2 3 3 3 6 6 7 9 9 10 11 11 11 11 11 10 9 6 8 8 6 7 7 7 13 21 22 22 21 21 21 20 19 18 17
6 5 4 3 3 4 2 3 3 4 6 8 9 9 9 9 11 10 10 8 7 6 6 5 5 5 6 11 19 21 21 21 21 21 20 19 19 17
6 5 5 4 4 5 3 2 2 2 1 3 4 5 6 9 10 9 10 10 7 4 3 4 5 5 5 5 13 19 20 21 21 20 20 20 20 18
5 4 4 5 6 6 4 2 2 2 2 3 4 5 7 9 12 11 11 11 8 4 4 5 7 5 4 3 6 12 15 17 19 19 20 20 20 13
5 5 4 5 6 5 5 3 2 3 2 2 3 4 5 6 7 7 8 9 9 5 8 6 7 5 5 5 3 5 10 11 13 13 17 20 18 10
5 4 4 6 5 5 3 2 2 3 2 2 3 3 4 4 5 5 6 5 5 7 12 10 7 7 7 6 5 5 6 9 10 10 13 16 14 9
4 5 5 5 4 1 2 2 3 2 1 1 2 3 3 5 6 7 8 9 10 9 10 9 9 9 8 7 8 8 7 7 9 9 10 11 12 11
4 2 3 2 1 1 0 0 1 1 0 1 2 3 4 5 6 6 7 9 8 7 6 8 10 10 6 8 9 10 9 9 10 10 9 9 10 11
7 4 2 1 1 0 1 1 1 1 1 2 3 4 5 5 6 6 7 6 6 7 7 6 7 7 6 7 8 9 10 8 9 10 9 9 9 10
7 5 3 2 1 1 1 1 1 1 2 3 4 4 5 6 6 5 6 6 8 8 8 8 8 7 4 2 1 9 9 9 9 10 10 9 9 10
7 5 4 4 3 2 2 2 2 2 2 3 4 4 5 6 6 6 6 7 7 8 8 8 8 7 8 6 4 4 8 8 9 9 10 9 9 8
7 6 6 5 4 4 4 3 3 3 3 4 4 5 5 6 6 6 7 8 8 8 7 7 7 7 6 5 6 6 8 9 9 10 9 9 7 3
7 7 7 7 6 6 5 5 5 5 5 5 5 6 6 6 6 6 6 8 8 8 8 7 4 2 3 3 5 5 7 6 4 7 8 9 8 8
9 8 8 8 8 7 6 6 6 6 7 6 6 7 7 7 8 8 8 8 8 7 7 6 6 5 6 6 6 7 7 7 5 4 5 6 6 6
10 10 9 9 9 8 8 9 9 8 8 8 8 8 7 7 7 7 8 8 7 8 8 7 7 6 6 6 6 5 7 8 7 8 9 14 15 11
Wind_Direction
251 244 239 238 236 234 231 227 223 222 218 212 203 209 210 216 201 200 208 196 199 200 198 195 191 189 188 186 186 183 181 180 178 177 179 179 178 175
259 253 246 240 235 231 229 226 225 229 231 208 201 197 198 210 204 207 211 190 193 195 193 189 186 184 184 183 180 179 177 175 176 176 176 173 169 161
268 264 260 249 238 229 226 225 224 222 229 222 194 191 191 201 196 201 203 196 195 193 190 185 183 181 180 179 179 177 175 174 174 173 173 169 160 153
282 274 271 262 246 234 227 225 223 221 221 219 201 191 197 196 193 193 194 197 194 187 186 184 180 178 177 177 176 176 176 174 172 171 171 166 159 152
291 282 276 264 256 243 234 228 222 220 220 219 205 192 195 189 186 188 187 183 188 182 181 180 176 174 174 175 174 174 172 169 167 166 164 158 154 149
297 284 276 266 257 250 242 234 224 217 212 212 205 193 190 186 184 184 181 180 179 173 171 171 170 170 171 171 171 170 167 165 162 158 155 151 147 145
305 291 279 279 280 266 254 241 230 220 211 207 205 195 191 185 190 185 181 170 171 167 161 164 161 164 166 164 165 164 162 160 157 154 151 147 144 142
318 307 288 258 256 249 252 252 246 230 217 210 208 205 200 193 185 181 176 172 174 168 161 160 158 158 158 163 164 162 159 157 155 152 150 147 145 143
330 327 322 321 291 253 224 228 238 236 234 224 216 214 206 195 187 187 184 177 168 159 152 153 154 153 148 157 160 160 158 157 155 153 151 149 147 145
338 334 330 332 347 328 288 253 246 228 227 229 229 225 212 199 191 187 174 153 129 140 141 140 142 135 133 145 155 155 155 155 155 154 152 151 149 148
341 348 345 340 2 327 293 279 272 256 229 243 250 231 200 181 174 168 166 160 152 143 125 126 132 116 112 130 147 152 154 154 154 154 154 153 153 154
334 341 12 355 342 318 287 270 263 253 226 199 198 191 185 172 172 181 174 167 153 144 149 133 141 133 116 102 136 149 151 153 155 157 159 161 166 176
328 336 351 359 338 324 304 298 307 295 255 211 180 176 171 170 175 180 176 170 162 148 155 141 148 141 130 133 134 152 154 157 159 162 167 172 183 207
321 329 350 357 340 327 314 352 314 282 239 195 168 159 155 153 147 146 140 134 135 143 156 152 150 155 142 141 144 155 165 169 172 173 177 180 193 212
318 337 334 331 314 299 52 352 286 255 204 179 152 137 125 124 118 111 104 101 99 116 144 151 147 153 151 152 155 161 167 181 186 183 181 185 194 197
294 266 239 286 309 8 6 303 336 9 58 141 126 118 118 122 123 124 123 120 111 103 106 133 145 150 148 151 159 167 172 176 185 190 189 195 200 201
319 291 278 262 240 134 74 51 39 93 112 124 134 136 133 128 127 132 136 133 130 133 127 118 118 119 127 151 164 172 175 178 180 186 190 198 205 209
294 270 260 259 261 240 186 147 140 126 132 136 137 141 142 139 134 139 148 148 144 144 144 143 139 131 125 95 166 176 178 180 179 183 193 203 211 210
269 263 252 244 240 230 214 197 188 165 152 145 142 143 143 143 145 147 150 149 146 149 152 158 167 169 173 176 175 214 187 179 179 187 200 211 220 214
253 256 249 241 235 227 216 204 191 176 169 161 154 155 154 151 151 155 158 158 154 153 156 169 182 189 194 182 164 176 206 190 189 197 202 211 222 214
248 247 245 240 235 230 222 211 201 193 185 180 172 170 167 164 162 164 160 154 160 164 170 175 162 134 130 134 153 167 178 202 225 212 206 205 215 224
245 243 240 238 234 228 221 216 210 202 195 192 185 182 177 174 171 170 168 170 176 176 172 154 151 173 188 198 200 181 175 182 199 242 256 243 226 229
237 237 235 231 230 228 223 218 216 209 203 200 193 189 185 182 179 177 178 179 176 171 164 162 169 184 197 203 209 201 190 191 195 205 223 226 235 244
Height
1480 1481 1482 1483 1485 1487 1489 1491 1494 1495 1496 1498 1501 1504 1508 1513 1516 1519 1523 1526 1529 1532 1534 1537 1540 1542 1545 1547 1550 1552 1554 1556 1557 1559 1560 1561 1562 1562
1476 1476 1476 1477 1478 1480 1482 1485 1487 1490 1491 1492 1495 1498 1502 1506 1509 1513 1517 1521 1524 1528 1530 1533 1536 1539 1542 1544 1547 1549 1551 1553 1555 1557 1558 1559 1560 1561
1472 1472 1472 1472 1473 1474 1476 1478 1481 1483 1485 1488 1490 1492 1496 1499 1503 1507 1511 1515 1519 1522 1526 1529 1532 1535 1538 1541 1544 1546 1549 1551 1553 1554 1556 1557 1558 1559
1469 1468 1468 1467 1468 1469 1470 1472 1474 1477 1480 1482 1484 1487 1490 1493 1497 1500 1504 1508 1512 1516 1520 1524 1528 1531 1534 1538 1541 1543 1546 1548 1550 1552 1554 1555 1556 1557
1466 1465 1464 1464 1464 1464 1465 1467 1469 1471 1474 1477 1479 1481 1484 1487 1491 1494 1498 1502 1506 1510 1515 1519 1523 1527 1530 1534 1537 1540 1543 1545 1547 1550 1551 1553 1553 1554
1463 1462 1461 1461 1461 1461 1462 1463 1464 1467 1469 1472 1474 1476 1479 1482 1485 1488 1492 1496 1500 1504 1508 1513 1517 1522 1526 1529 1533 1536 1539 1542 1544 1547 1548 1550 1551 1552
1461 1459 1458 1458 1457 1458 1459 1459 1461 1462 1464 1466 1469 1471 1473 1476 1480 1483 1486 1490 1495 1499 1503 1507 1511 1516 1520 1525 1529 1532 1536 1539 1541 1544 1545 1547 1548 1549
1459 1458 1457 1456 1455 1455 1455 1456 1457 1458 1460 1462 1464 1466 1468 1471 1475 1478 1481 1486 1489 1493 1498 1502 1506 1510 1515 1519 1523 1528 1531 1535 1538 1540 1542 1544 1546 1547
1458 1457 1456 1455 1454 1454 1453 1453 1454 1455 1457 1458 1460 1461 1464 1466 1470 1473 1476 1480 1484 1488 1493 1497 1502 1506 1511 1515 1520 1524 1527 1531 1535 1537 1539 1541 1543 1544
1458 1456 1455 1454 1453 1452 1452 1452 1452 1452 1453 1455 1456 1458 1460 1463 1465 1469 1472 1476 1480 1484 1489 1493 1497 1502 1507 1511 1516 1520 1524 1528 1531 1534 1536 1538 1540 1542
1457 1455 1454 1453 1452 1451 1451 1451 1451 1450 1450 1451 1452 1454 1456 1458 1461 1465 1468 1471 1475 1479 1484 1488 1493 1499 1504 1508 1513 1517 1521 1525 1528 1531 1533 1535 1538 1539
1457 1455 1454 1452 1451 1451 1450 1450 1450 1449 1449 1449 1449 1450 1452 1455 1457 1460 1464 1467 1471 1476 1480 1485 1490 1495 1501 1506 1510 1514 1518 1522 1525 1528 1530 1533 1535 1536
1457 1455 1454 1452 1451 1450 1450 1449 1449 1448 1448 1447 1447 1448 1450 1452 1454 1457 1461 1464 1468 1472 1477 1482 1487 1491 1496 1502 1507 1511 1515 1518 1522 1525 1527 1530 1532 1534
1457 1455 1454 1452 1451 1450 1449 1449 1448 1447 1447 1447 1447 1447 1448 1450 1452 1455 1459 1462 1467 1471 1475 1479 1484 1488 1493 1498 1503 1508 1512 1516 1519 1522 1524 1526 1528 1530
1457 1455 1454 1452 1451 1450 1449 1449 1448 1447 1447 1446 1446 1447 1448 1450 1452 1454 1457 1461 1465 1469 1474 1478 1482 1487 1492 1496 1500 1504 1508 1512 1516 1519 1521 1523 1524 1526
1457 1455 1454 1452 1451 1450 1449 1449 1448 1447 1446 1447 1447 1448 1449 1451 1453 1455 1458 1461 1464 1468 1472 1477 1482 1486 1490 1495 1498 1501 1505 1508 1512 1515 1518 1520 1521 1522
1456 1455 1454 1453 1452 1451 1450 1449 1448 1447 1447 1447 1448 1449 1450 1451 1453 1456 1458 1461 1465 1468 1472 1476 1480 1484 1489 1493 1496 1499 1502 1506 1508 1511 1514 1515 1517 1518
1455 1455 1454 1453 1452 1451 1450 1449 1448 1448 1448 1448 1448 1449 1450 1452 1454 1456 1459 1462 1465 1468 1471 1475 1479 1483 1487 1491 1494 1497 1499 1502 1505 1507 1509 1511 1513 1514
1454 1453 1453 1452 1451 1451 1450 1449 1449 1448 1448 1449 1449 1450 1451 1453 1455 1457 1459 1462 1465 1468 1471 1475 1478 1482 1485 1489 1491 1494 1497 1499 1501 1503 1505 1507 1509 1511
1452 1451 1451 1450 1450 1450 1449 1449 1449 1449 1449 1449 1449 1450 1452 1453 1455 1457 1459 1462 1465 1468 1471 1474 1477 1481 1484 1487 1489 1490 1493 1495 1497 1500 1501 1503 1505 1506
1449 1448 1448 1448 1448 1448 1448 1448 1448 1448 1449 1449 1450 1451 1452 1454 1455 1457 1459 1462 1464 1467 1469 1472 1475 1478 1481 1484 1487 1488 1490 1491 1493 1496 1498 1499 1500 1501
1445 1444 1444 1444 1444 1445 1445 1445 1446 1446 1447 1448 1449 1450 1452 1453 1455 1456 1458 1460 1463 1466 1468 1470 1473 1476 1479 1481 1484 1485 1486 1487 1489 1490 1492 1494 1495 1497
1439 1439 1439 1439 1440 1440 1441 1442 1443 1444 1445 1446 1447 1448 1450 1451 1453 1455 1457 1459 1462 1464 1466 1468 1470 1473 1476 1478 1481 1482 1483 1484 1485 1486 1487 1488 1490 1491